User: anonymous   Login
Location: Karlovy Vary
(50.2170°N, 12.9000°E)
Time: 09:27:11
(UTC+01:00)
Language:

ISS - Orbit

View from above orbital plane
View from above orbital plane
View from above satellite
View from above satellite

Ground track
Ground track

The orbit data is extracted from the following two-line orbital elements,

1 25544U 98067A   17021.49240882  .00016717  00000-0  10270-3 0  9038
2 25544  51.6426  49.6125 0007619 105.3516 254.8479 15.54132335 38931
Epoch (UTC): 21 January 2017 11:49:04
Eccentricity: 0.0007619
inclination: 51.6426°
perigee height: 399 km
apogee height: 410 km
right ascension of ascending node: 49.6125°
argument of perigee: 105.3516°
revolutions per day: 15.54132335
mean anomaly at epoch: 254.8479°
orbit number at epoch: 3893

The dashed part of the orbit path shows where the satellite is in the earth's shadow,  

DLR